Location: Newark
(45.8667°N, 9.7333°E)
Time: 01:00:40
(UTC+00:00)

Vanguard 2 Rocket - Pass Details

Date: 03 February 2020
Orbit: 554 x 3327 km, 32.9° (Epoch: 20 February)

Event Time Altitude Azimuth Distance (km) Brightness Sun altitude
Rises 05:21:14 0° 245° (WSW) 2,740 - -14.2°
Exits shadow 05:23:29 - 226° (SW) 2,164 8.5 -13.8°
Reaches altitude 10° 05:24:45 10° 211° (SSW) 1,989 8.5 -13.6°
Maximum altitude 05:26:20 12° 189° (S) 1,980 8.7 -13.3°
Drops below altitude 10° 05:28:05 10° 168° (SSE) 2,232 9.2 -13.0°
Sets 05:32:46 0° 138° (SE) 3,638 10.9 -12.2°
